Welcome to the New NWS' Forecast!
Most changes are behind the scenes, but click here for differences you might notice.

Regional Weather Roundup (RWR)

Issued by Gray - Portland, ME (GYX)

                            
000
ASUS41 KGYX 162005
RWRGYX
WEATHER ROUNDUP FOR MAINE AND NEW HAMPSHIRE
NATIONAL WEATHER SERVICE GRAY ME
300 PM EST FRI NOV 16 2018

MEZ002-005-006-010-012-015-018-020-021-024-026-027-029-162100-
MAINE
  
CITY           SKY/WX    TMP DP  RH WIND       PRES   REMARKS
PORTLAND       CLOUDY    31  26  82 N14G22    29.53R BLWGSNOW         
SANFORD        LGT SNOW  30  27  88 N13       29.54R FOG     WCI  20  
BAR HARBOR     LGT SNOW  28  26  92 N21G28    29.42S FOG     WCI  15  
WISCASSET      LGT SNOW  29  25  85 N8        29.52R FOG              
ROCKLAND       CLOUDY    29  25  85 N10G22    29.46R WCI  20          
FRYEBURG       CLOUDY    33  26  75 N5        29.53F                  
LEWISTONAUBURN FLURRIES  30  25  81 N16       29.52F WCI  19          
AUGUSTA        LGT SNOW  28  25  88 N16       29.54R FOG     WCI  16  
WATERVILLE     LGT SNOW  28  25  88 MISG      29.51R FOG              
BANGOR         SNOW      25  22  88 N23G30    29.50F VSB 1/2 WCI  10  
GREENVILLE       N/A     23  18  81 NW7       29.47F                  
MILLINOCKET    SNOW      23  19  85 NE10G17   29.58F VSB 1/4 WCI  12  
HOULTON        FOG       22  21  96 N9        29.58F VSB<1/4          
PRESQUE ISLE   LGT SNOW  21  19  92 N9        29.64F VSB 1            
FRENCHVILLE    LGT SNOW  20  14  77 N10       29.64F VSB 3/4 WCI   9  
CARIBOU        HVY SNOW  21  18  88 N9        29.63F VSB 1/4          
$$

NHZ002-005-008-009-011-012-014-162100-
NEW HAMPSHIRE
  
CITY           SKY/WX    TMP DP  RH WIND       PRES   REMARKS
PORTSMOUTH     CLOUDY    32  26  78 NW13G23   29.54R                  
ROCHESTER      CLOUDY    33  28  81 NW10      29.53R                  
NASHUA         PTSUNNY   36  32  85 W6        29.60R                  
MANCHESTER     CLOUDY    35  30  82 W7        29.58R                  
CONCORD        CLOUDY    34  28  79 W10       29.57R                  
LACONIA        CLOUDY    35  29  78 W7        29.56R                  
PLYMOUTH       CLOUDY    32  26  78 W10G23    29.56R                  
BERLIN         PTSUNNY   28  22  78 CALM      29.54F                  
WHITEFIELD     CLOUDY    29  23  78 W3        29.56F                  
JAFFREY        FAIR      34  26  72 W8        29.58R                  
KEENE          CLOUDY    34  28  79 N6        29.62R                  
LEBANON        CLOUDY    33  24  69 VRB3      29.59F                  
MT WASHINGTON  BLWGSNOW  18  18 100 W52         N/A  VSB 1/16WCI  -6  
$$

VTZ005-007-008-162100-
VERMONT
  
CITY           SKY/WX    TMP DP  RH WIND       PRES   REMARKS
ST JOHNSBURY     N/A     30  25  81 MISG      29.58S                  
MONTPELIER     CLOUDY    28  26  92 CALM      29.61F                  
BURLINGTON     CLOUDY    31  26  82 N6        29.63F                  
$$

MAZ007-012-024-CTZ003-RIZ002-NYZ038-NYZ072-162100-
SOUTHERN NEW ENGLAND AND NY
  
CITY           SKY/WX    TMP DP  RH WIND       PRES   REMARKS
BOSTON         FLURRIES  37  30  75 W18       29.61R                  
WORCESTER      CLOUDY    31  27  85 W14G20    29.59R                  
NANTUCKET      CLOUDY    39  36  89 NW18G30   29.57R                  
PROVIDENCE     PTSUNNY   38  31  76 NW14      29.63R                  
HARTFORD       PTSUNNY   41  29  62 NW18      29.67R                  
ALBANY         FLURRIES  35  28  75 CALM      29.68F                  
NEW YORK CITY  PTSUNNY   46  31  55 W16       29.75R                  
$$

ANZ081-ANZ082-ANZ150-NHZ014-MEZ023>029-162100-
COASTAL MARINE OBSERVATIONS
  
STATION/POSITION TIME  TEMP    WIND        PRES    WAVE
                       AIR SEA DIR/SP/G            HT/PER
                 (UTC) (F)     (DEG/KT/KT) (MB)    (FT/S)
MOUNT DESERT ROC 2000   36     350/ 36/ 41  992.5F
MATINICUS ROCK   1900   35      10/ 38/ 41  992.5F
ISLE OF SHOALS   1900   33     320/ 25/ 28  999.0R
CASHES LEDGE BUO 1950   38 50                N/A    18/11
$$

.............KEY..............
   WCI - WIND CHILL
   TC  - TEMPERATURE IN CELSIUS
   VSB - VISIBILITY IN MILES
   HX  - HEAT INDEX
   FAIR- INDICATES FEW OR NO CLOUDS BELOW 12,000 FT, WITH NO 
         SIGNIFICANT WEATHER AND/OR OBSTRUCTIONS TO VISIBILITY.